[[{"header":{"parameterUnit":"m.s-1","parameterCategory":2,"la1":30.2991,"la2":30.254,"lo1":-89.0895,"lo2":-89.0444,"dy":0.0017,"dx":0.0017,"nx":28,"ny":28,"refTime":"2025-01-28T03:00:00:Z","depth":"0","parameterNumber":2,"parameterNumberName":"U-component_of_CURRENTS"},"data":[0,0,0,0,0,0,0,0,0,0,0,0,0,0,0,0,0,0,0,0,0,0,0,0,0,0,0,0,0,0,0,0,0,0,0,0,0,0,0,0,0,0,0,0,0,0,0,0,0,0,0,0,0,0,0,0,0,0,0.2581,0.2582,0,0.263,0.263,0.263,0.2636,0.2636,0.2636,0.2635,0.2626,0.2626,0.2626,0,0,0,0,0,0,0,0,0,0,0,0,0,0.2487,0.2489,0.2581,0.2582,0.2583,0.263,0.263,0.263,0.2636,0.2636,0.2636,0.2635,0.2626,0.2626,0.2626,0,0,0,0,0,0,0,0,0,0,0,0,0,0.2528,0.2489,0.2581,0.2593,0.2595,0.2629,0.263,0.263,0.2636,0.2636,0.2636,0.2635,0.2626,0.2626,0.2626,0.2632,0,0,0.2626,0.2626,0,0,0,0,0,0,0,0,0.2526,0.2531,0.2591,0.2593,0.2595,0.2629,0.2594,0.2629,0.2636,0.2617,0.2635,0.2635,0.2624,0.2624,0.263,0.2631,0.2631,0.2626,0.2626,0.2626,0.2626,0,0,0,0,0,0,0,0.2523,0.2529,0.2597,0.2592,0.2594,0.2595,0.26,0.26,0.2618,0.2619,0.262,0.2631,0.2624,0.2631,0.263,0.2631,0.2626,0.2626,0.2626,0.2626,0.2669,0.267,0,0,0,0,0,0,0.2524,0.2527,0.2596,0.2599,0.2562,0.2597,0.2603,0.2616,0.262,0.2621,0.2631,0.2631,0.2631,0.263,0.263,0.2664,0.2626,0.2626,0.2626,0.2667,0.2669,0.267,0,0,0,0,0,0,0.2522,0.253,0.2594,0.2566,0.2574,0.2599,0.2614,0.2617,0.2628,0.263,0.263,0.2639,0.2631,0.263,0.2642,0.2663,0.2626,0.2626,0.2666,0.2668,0.267,0.2715,0,0,0,0,0,0,0.2519,0.2529,0.2537,0.2566,0.2576,0.2621,0.2615,0.2618,0.2636,0.2636,0.2637,0.2636,0.263,0.2642,0.2641,0.2662,0.2626,0.2665,0.2667,0.2669,0.2712,0.2718,0.2723,0,0,0,0,0,0.2516,0.2529,0.2537,0.2546,0.2588,0.2622,0.2627,0.2641,0.2637,0.2648,0.265,0.2636,0.2656,0.2643,0.2642,0.2663,0.2663,0.2666,0.2669,0.2709,0.2717,0.2723,0,0,0,0,0,0,0.2491,0.2533,0.2541,0.2567,0.2596,0.2624,0.2638,0.2645,0.2656,0.2654,0.2648,0.2647,0.2666,0.2659,0.2645,0.2683,0.2659,0.2661,0.269,0.2697,0.2702,0.2716,0.2625,0,0,0,0,0,0.2491,0.2513,0.2551,0.2572,0.2588,0.2613,0.2627,0.2639,0.2655,0.266,0.2661,0.2665,0.2677,0.2682,0.2687,0.2705,0.2721,0.272,0.2725,0.273,0.2742,0.2776,0.2786,0.2679,0.2679,0.2679,0,0,0.2484,0.2513,0.2523,0.2568,0.2591,0.2622,0.262,0.2649,0.2673,0.2656,0.2681,0.2682,0.2686,0.2711,0.2719,0.2707,0.2775,0.2733,0.2737,0.2747,0.278,0.2791,0.28,0.2681,0.2681,0.268,0,0,0.2488,0.2512,0.2534,0.2564,0.2608,0.2629,0.2639,0.2671,0.2685,0.271,0.2709,0.2727,0.2735,0.2752,0.2759,0.28,0.2802,0.2798,0.2839,0.2872,0.2881,0.2889,0.2946,0.2959,0.2802,0.2802,0.2802,0,0.2476,0.2516,0.2544,0.2579,0.2608,0.2633,0.2665,0.2688,0.2718,0.2738,0.2723,0.2763,0.276,0.2806,0.2821,0.2814,0.2839,0.281,0.288,0.2888,0.2896,0.2952,0.2965,0.2805,0.2804,0.2804,0.2804,0,0.2502,0.2535,0.2554,0.2608,0.2639,0.2673,0.2715,0.2743,0.2758,0.278,0.2822,0.2826,0.2854,0.2856,0.285,0.2907,0.2912,0.2881,0.2862,0.2909,0.2965,0.2979,0.2808,0.2807,0.2807,0.2806,0,0,0.2468,0.2553,0.2559,0.2594,0.266,0.2689,0.2741,0.2798,0.2835,0.2858,0.2907,0.2929,0.2934,0.2944,0.2943,0.297,0.3047,0.2952,0.2952,0.3009,0.3146,0.3202,0.3222,0.3025,0.3027,0.3029,0.3171,0,0.248,0.2545,0.2587,0.2648,0.2687,0.2738,0.2784,0.2837,0.2876,0.2928,0.2953,0.2992,0.2968,0.2986,0.3013,0.3038,0.3081,0.3013,0.3091,0.3095,0.3138,0.3239,0.3145,0.3268,0.3184,0.3187,0.3188,0,0.2489,0.2538,0.2596,0.2681,0.2703,0.2737,0.2825,0.2868,0.2949,0.2985,0.3036,0.3059,0.3124,0.308,0.3169,0.3127,0.3148,0.316,0.3165,0.3211,0.3176,0.3203,0.3295,0.3217,0.3208,0.3207,0.3205,0,0.2454,0.2542,0.2589,0.2619,0.2715,0.2749,0.2793,0.2875,0.2927,0.302,0.3075,0.3143,0.3194,0.3224,0.3278,0.3224,0.3378,0.33,0.3377,0.3381,0.3316,0.3312,0.334,0.3365,0.3364,0.3364,0.3364,0,0.2453,0.2489,0.2573,0.2601,0.2651,0.2724,0.2784,0.2845,0.2946,0.302,0.3091,0.3181,0.323,0.3326,0.3334,0.3438,0.3433,0.3425,0.3433,0.3333,0.3329,0.3267,0.3224,0.3369,0.3368,0.3367,0.3366,0,0.2403,0.2464,0.2516,0.261,0.2633,0.2661,0.2764,0.2815,0.2922,0.3028,0.3069,0.3234,0.338,0.3452,0.3541,0.3534,0.3524,0.3631,0.3536,0.3531,0.35,0.3463,0.3402,0.3289,0.3728,0.3731,0.3733,0,0.2384,0.2408,0.2491,0.2516,0.2553,0.2611,0.2653,0.2773,0.2838,0.3066,0.3117,0.3325,0.3461,0.3659,0.3707,0.379,0.3638,0.3736,0.3606,0.3534,0.3498,0.3326,0.3219,0.354,0.354,0.354,0.354,0,0.2339,0.2364,0.2404,0.2453,0.2495,0.2548,0.2621,0.2681,0.2844,0.2967,0.3158,0.3299,0.355,0.3635,0.3792,0.3812,0.3576,0.3745,0.3672,0.3383,0.3193,0.3075,0.3429,0.3543,0.3542,0.3542,0.3542,0.3542,0.2284,0.2293,0.2342,0.2384,0.2429,0.2477,0.2491,0.2609,0.2725,0.2898,0.3099,0.3275,0.3503,0.3725,0.3734,0.3717,0.3628,0.3597,0.3573,0.3416,0.3259,0.3658,0.3778,0.3779,0.378,0.3781,0.3782,0,0.2217,0.2239,0.2275,0.2312,0.2329,0.2387,0.2461,0.2476,0.2578,0.2798,0.2958,0.3223,0.3381,0.3528,0.3639,0.3541,0.3316,0.3454,0.315,0.3059,0.343,0.3374,0.341,0.341,0.341,0.341,0.341,0.341,0.2178,0.2185,0.2211,0.2208,0.2233,0.2218,0.2244,0.2294,0.2413,0.2605,0.2758,0.2932,0.327,0.3531,0.3508,0.3415,0.3104,0.3019,0.2958,0.3206,0.3213,0.3221,0.3156,0.3145,0.3145,0.2428,0.2423,0.242]},{"header":{"parameterUnit":"m.s-1","parameterCategory":2,"la1":30.2991,"la2":30.254,"lo1":-89.0895,"lo2":-89.0444,"dy":0.0017,"dx":0.0017,"nx":28,"ny":28,"refTime":"2025-01-28T03:00:00:Z","depth":"0","parameterNumber":3,"parameterNumberName":"V-component_of_CURRENTS"},"data":[0,0,0,0,0,0,0,0,0,0,0,0,0,0,0,0,0,0,0,0,0,0,0,0,0,0,0,0,0,0,0,0,0,0,0,0,0,0,0,0,0,0,0,0,0,0,0,0,0,0,0,0,0,0,0,0,0,0,-0.0556,-0.0557,0,-0.0631,-0.0632,-0.0633,-0.0684,-0.0684,-0.0685,-0.0685,-0.0774,-0.0776,-0.0778,0,0,0,0,0,0,0,0,0,0,0,0,0,-0.049,-0.049,-0.0556,-0.0557,-0.0558,-0.0631,-0.0632,-0.0633,-0.0684,-0.0684,-0.0685,-0.0685,-0.0774,-0.0776,-0.0779,0,0,0,0,0,0,0,0,0,0,0,0,0,-0.0537,-0.049,-0.0556,-0.0592,-0.0596,-0.0631,-0.0632,-0.0633,-0.0684,-0.0684,-0.0685,-0.0685,-0.0773,-0.0776,-0.0779,-0.0787,0,0,-0.0788,-0.079,0,0,0,0,0,0,0,0,-0.0534,-0.0539,-0.0586,-0.0589,-0.0594,-0.0649,-0.0642,-0.0685,-0.0684,-0.065,-0.0685,-0.0686,-0.0733,-0.074,-0.0752,-0.0791,-0.0795,-0.0789,-0.079,-0.0792,-0.0793,0,0,0,0,0,0,0,-0.0531,-0.0536,-0.0586,-0.0587,-0.0592,-0.0616,-0.0623,-0.065,-0.0688,-0.0653,-0.0657,-0.0665,-0.0736,-0.0749,-0.0755,-0.0796,-0.0789,-0.0791,-0.0793,-0.0794,-0.0863,-0.0863,0,0,0,0,0,0,-0.0519,-0.0533,-0.0583,-0.0588,-0.0565,-0.0617,-0.0624,-0.0631,-0.0687,-0.0697,-0.0665,-0.0668,-0.0744,-0.0751,-0.0758,-0.0779,-0.0792,-0.0795,-0.0796,-0.0863,-0.0863,-0.0863,0,0,0,0,0,0,-0.0517,-0.0523,-0.058,-0.0562,-0.0571,-0.0617,-0.0624,-0.0632,-0.0644,-0.0696,-0.0706,-0.0668,-0.0744,-0.0754,-0.0777,-0.0783,-0.0796,-0.0799,-0.0863,-0.0863,-0.0863,-0.0815,0,0,0,0,0,0,-0.0515,-0.0522,-0.0521,-0.0561,-0.0572,-0.0589,-0.0623,-0.0633,-0.0648,-0.0653,-0.0702,-0.0711,-0.0746,-0.0772,-0.078,-0.0787,-0.0801,-0.0863,-0.0863,-0.0863,-0.0817,-0.0814,-0.0811,0,0,0,0,0,-0.0512,-0.0505,-0.052,-0.0526,-0.057,-0.0588,-0.0595,-0.063,-0.0648,-0.0644,-0.0682,-0.071,-0.0778,-0.0774,-0.0784,-0.0792,-0.0863,-0.0863,-0.0863,-0.0818,-0.0814,-0.0811,0,0,0,0,0,0,-0.0472,-0.0511,-0.0528,-0.0532,-0.0554,-0.0596,-0.0599,-0.0623,-0.065,-0.0655,-0.0705,-0.0716,-0.074,-0.0769,-0.0763,-0.0812,-0.0828,-0.0829,-0.079,-0.0787,-0.0784,-0.077,-0.0804,0,0,0,0,0,-0.0463,-0.0469,-0.0506,-0.0507,-0.0516,-0.0556,-0.0568,-0.059,-0.0621,-0.0634,-0.067,-0.0711,-0.0748,-0.0767,-0.0799,-0.0821,-0.0851,-0.0834,-0.0831,-0.0828,-0.0824,-0.0887,-0.0889,-0.0863,-0.0863,-0.0863,0,0,-0.0448,-0.0469,-0.0473,-0.0499,-0.0521,-0.0526,-0.0564,-0.0575,-0.0584,-0.0639,-0.0657,-0.0697,-0.075,-0.0777,-0.0792,-0.0802,-0.0846,-0.0828,-0.0825,-0.0822,-0.0887,-0.0889,-0.0892,-0.0863,-0.0863,-0.0863,0,0,-0.0415,-0.0437,-0.0431,-0.0446,-0.0472,-0.0497,-0.0496,-0.0533,-0.0554,-0.0575,-0.0623,-0.0662,-0.0709,-0.0755,-0.0784,-0.0782,-0.0826,-0.0794,-0.0773,-0.0834,-0.0837,-0.0839,-0.0858,-0.0863,-0.0797,-0.0797,-0.0796,0,-0.0396,-0.0395,-0.0429,-0.0426,-0.0434,-0.0479,-0.047,-0.0498,-0.0539,-0.0557,-0.0571,-0.0658,-0.0702,-0.0753,-0.0757,-0.0776,-0.0804,-0.0782,-0.083,-0.0834,-0.0838,-0.0856,-0.0862,-0.0794,-0.0794,-0.0795,-0.0795,0,-0.036,-0.0361,-0.0355,-0.037,-0.038,-0.0377,-0.0419,-0.0434,-0.0466,-0.0502,-0.055,-0.0612,-0.0666,-0.0691,-0.0725,-0.0776,-0.0782,-0.0816,-0.0837,-0.0837,-0.0856,-0.0863,-0.0791,-0.0792,-0.0792,-0.0793,0,0,-0.0314,-0.0328,-0.0325,-0.032,-0.0349,-0.035,-0.0367,-0.0398,-0.0409,-0.0464,-0.0486,-0.0568,-0.0609,-0.0644,-0.0699,-0.0756,-0.0803,-0.0793,-0.0798,-0.0806,-0.0909,-0.0824,-0.0824,-0.0851,-0.0852,-0.0853,-0.0903,0,-0.0275,-0.0253,-0.0273,-0.025,-0.0242,-0.0285,-0.0293,-0.033,-0.0372,-0.0403,-0.049,-0.0527,-0.0591,-0.0613,-0.0684,-0.0769,-0.0823,-0.0784,-0.0912,-0.0915,-0.0837,-0.083,-0.0772,-0.0804,-0.091,-0.0911,-0.0912,0,-0.0232,-0.0224,-0.0194,-0.0193,-0.0192,-0.0185,-0.0206,-0.0223,-0.0291,-0.0323,-0.039,-0.0452,-0.0537,-0.059,-0.0745,-0.0717,-0.0807,-0.0878,-0.0883,-0.0826,-0.0844,-0.0827,-0.0813,-0.1004,-0.0924,-0.0923,-0.0922,0,-0.0181,-0.0167,-0.0139,-0.0138,-0.0147,-0.0139,-0.0148,-0.0198,-0.0197,-0.0272,-0.0269,-0.0398,-0.0425,-0.0582,-0.0708,-0.074,-0.086,-0.0927,-0.0935,-0.0929,-0.0914,-0.0903,-0.1096,-0.1044,-0.1043,-0.1043,-0.1043,0,-0.0135,-0.011,-0.0108,-0.0092,-0.0052,-0.0083,-0.0052,-0.0089,-0.0113,-0.0074,-0.022,-0.0198,-0.0425,-0.0511,-0.0676,-0.0791,-0.0837,-0.0919,-0.094,-0.089,-0.0877,-0.107,-0.1192,-0.1045,-0.1045,-0.1044,-0.1044,0,-0.0081,-0.0085,-0.0045,-0.0034,-0.0026,0.0002,0.0033,0.0056,0.0015,0.0066,0.0057,-0.0044,-0.0133,-0.0338,-0.055,-0.0698,-0.0938,-0.0888,-0.078,-0.0787,-0.0978,-0.1097,-0.1287,-0.1358,-0.0926,-0.0924,-0.0923,0,-0.0056,-0.0029,0.0011,0.0051,0.0064,0.0105,0.0141,0.0119,0.0173,0.0195,0.0247,0.0173,0.0194,-0.0081,-0.036,-0.0609,-0.0837,-0.0751,-0.0814,-0.0966,-0.1117,-0.1211,-0.1266,-0.0777,-0.0775,-0.0773,-0.0771,0,0.0006,0.0025,0.0066,0.0148,0.0202,0.0267,0.0335,0.041,0.0432,0.0515,0.0633,0.0652,0.041,0.0216,-0.0139,-0.0353,-0.0863,-0.0712,-0.0932,-0.1054,-0.1112,-0.1195,-0.0747,-0.0752,-0.0754,-0.0755,-0.0756,-0.0757,0.0065,0.0116,0.0183,0.027,0.0338,0.0462,0.0574,0.0688,0.0846,0.1043,0.0999,0.1114,0.0714,0.0261,-0.0062,-0.0643,-0.0698,-0.0839,-0.0979,-0.1065,-0.1115,-0.0581,-0.0567,-0.0568,-0.0569,-0.0569,-0.057,0,0.0159,0.0223,0.0305,0.0428,0.0551,0.0554,0.0735,0.0894,0.1169,0.1339,0.1501,0.1402,0.0938,0.0358,-0.0419,-0.084,-0.1047,-0.1107,-0.1286,-0.1338,-0.0917,-0.089,-0.0869,-0.0869,-0.0868,-0.0868,-0.0868,-0.0868,0.0218,0.0332,0.0383,0.0609,0.0707,0.0916,0.1055,0.1288,0.1471,0.1771,0.1875,0.1894,0.1415,-0.0002,-0.0977,-0.1219,-0.1577,-0.1614,-0.1805,-0.1581,-0.1569,-0.1558,-0.1563,-0.1684,-0.1685,-0.2156,-0.2161,-0.2165]}],[{"header":{"parameterUnit":"m.s-1","parameterCategory":2,"la1":30.2991,"la2":30.254,"lo1":-89.0895,"lo2":-89.0444,"dy":0.0017,"dx":0.0017,"nx":28,"ny":28,"refTime":"2025-01-28T03:00:00:Z","depth":"2","parameterNumber":2,"parameterNumberName":"U-component_of_CURRENTS"},"data":[0,0,0,0,0,0,0,0,0,0,0,0,0,0,0,0,0,0,0,0,0,0,0,0,0,0,0,0,0,0,0,0,0,0,0,0,0,0,0,0,0,0,0,0,0,0,0,0,0,0,0,0,0,0,0,0,0,0,0.2219,0.222,0,0.2267,0.2268,0.2268,0.2284,0.2284,0.2284,0.2284,0.2311,0.2311,0.2312,0,0,0,0,0,0,0,0,0,0,0,0,0,0.2136,0.2138,0.2219,0.222,0.2221,0.2267,0.2268,0.2268,0.2284,0.2284,0.2284,0.2284,0.231,0.2311,0.2312,0,0,0,0,0,0,0,0,0,0,0,0,0,0.2176,0.2138,0.2219,0.2235,0.2237,0.2267,0.2268,0.2269,0.2284,0.2284,0.2284,0.2284,0.231,0.2311,0.2312,0.2322,0,0,0.2316,0.2316,0,0,0,0,0,0,0,0,0.2174,0.2179,0.2232,0.2234,0.2237,0.2271,0.2249,0.2286,0.2285,0.2265,0.2284,0.2284,0.2296,0.2299,0.2306,0.2323,0.2324,0.2316,0.2317,0.2317,0.2318,0,0,0,0,0,0,0,0.2171,0.2177,0.2237,0.2233,0.2236,0.2239,0.2244,0.2256,0.2279,0.2267,0.2268,0.2276,0.2297,0.2305,0.2307,0.2325,0.2316,0.2317,0.2318,0.2318,0.2387,0.2388,0,0,0,0,0,0,0.2168,0.2174,0.2235,0.2239,0.2206,0.224,0.2246,0.2259,0.228,0.2283,0.2276,0.2277,0.2303,0.2306,0.2308,0.2361,0.2317,0.2318,0.2319,0.2386,0.2387,0.2388,0,0,0,0,0,0,0.2167,0.2174,0.2234,0.2208,0.2216,0.2242,0.2256,0.226,0.2279,0.2287,0.229,0.2292,0.2303,0.2306,0.2331,0.2361,0.2319,0.232,0.2384,0.2386,0.2388,0.2441,0,0,0,0,0,0,0.2164,0.2173,0.2184,0.2208,0.2218,0.2259,0.2256,0.2261,0.2283,0.2285,0.2302,0.2303,0.2303,0.2329,0.2332,0.2362,0.2321,0.2383,0.2385,0.2387,0.2438,0.2445,0.245,0,0,0,0,0,0.2161,0.2174,0.2184,0.2192,0.2232,0.226,0.2265,0.2282,0.2284,0.2297,0.2309,0.2303,0.2344,0.2331,0.2334,0.2365,0.2382,0.2385,0.2387,0.2435,0.2443,0.245,0,0,0,0,0,0,0.2139,0.2178,0.2189,0.2213,0.2239,0.2264,0.2278,0.2289,0.231,0.2313,0.2316,0.232,0.2355,0.235,0.2334,0.239,0.2363,0.2366,0.2399,0.2406,0.2412,0.2435,0.2322,0,0,0,0,0,0.2142,0.2166,0.2198,0.2218,0.2233,0.2258,0.2273,0.2287,0.2307,0.2317,0.2329,0.2344,0.2367,0.2377,0.2393,0.242,0.2434,0.2442,0.2448,0.2453,0.2473,0.2515,0.2528,0.2397,0.2397,0.2397,0,0,0.2138,0.2163,0.2176,0.2216,0.2237,0.2267,0.2267,0.2296,0.2327,0.2316,0.2358,0.2367,0.2379,0.2415,0.243,0.2414,0.2497,0.2456,0.2461,0.2479,0.2519,0.2532,0.2544,0.2398,0.2398,0.2398,0,0,0.2143,0.2168,0.219,0.2217,0.2256,0.2277,0.2289,0.2323,0.2346,0.2381,0.2389,0.2418,0.244,0.2466,0.2478,0.2526,0.2529,0.2527,0.2577,0.2617,0.2628,0.2639,0.2671,0.2684,0.2528,0.2528,0.2528,0,0.2141,0.2172,0.22,0.2229,0.2256,0.2284,0.2315,0.2346,0.2385,0.2413,0.2399,0.2468,0.2469,0.2535,0.2551,0.2542,0.2563,0.2547,0.2626,0.2637,0.2646,0.2677,0.269,0.2531,0.2531,0.2531,0.253,0,0.2159,0.2191,0.2207,0.2259,0.229,0.2321,0.2368,0.2405,0.243,0.2461,0.2528,0.2542,0.2582,0.2589,0.2584,0.2661,0.2654,0.2631,0.2609,0.2663,0.2691,0.2704,0.2535,0.2534,0.2533,0.2533,0,0,0.2138,0.2208,0.2214,0.2247,0.231,0.2337,0.24,0.2466,0.2516,0.2555,0.2621,0.2663,0.2677,0.2694,0.2701,0.2739,0.2813,0.2718,0.2719,0.2754,0.2909,0.2876,0.2887,0.2807,0.2809,0.2811,0.29,0,0.2147,0.2202,0.2238,0.2298,0.2334,0.2388,0.2443,0.2508,0.2561,0.263,0.2675,0.2735,0.2717,0.2744,0.2782,0.2822,0.2851,0.2792,0.2849,0.2851,0.2819,0.2902,0.2692,0.2752,0.2913,0.2915,0.2917,0,0.2147,0.2191,0.2245,0.233,0.2351,0.2391,0.2492,0.2549,0.2653,0.2702,0.2777,0.2808,0.29,0.2852,0.296,0.2927,0.2921,0.2935,0.2938,0.2903,0.2844,0.2725,0.2769,0.2938,0.2936,0.2935,0.2933,0,0.2112,0.2194,0.2237,0.2264,0.2362,0.2403,0.2463,0.2566,0.2632,0.2758,0.2813,0.2916,0.298,0.3015,0.3046,0.3012,0.3145,0.3091,0.3054,0.3051,0.2882,0.286,0.3138,0.3138,0.3138,0.3138,0.3137,0,0.2102,0.214,0.2225,0.225,0.231,0.239,0.2469,0.2551,0.2674,0.2746,0.2846,0.2912,0.3025,0.3099,0.3096,0.3144,0.3186,0.3095,0.3086,0.2893,0.2873,0.3035,0.3021,0.3141,0.314,0.314,0.3139,0,0.2052,0.2109,0.2165,0.2264,0.2292,0.2338,0.2461,0.2521,0.2654,0.2755,0.28,0.2957,0.3067,0.3153,0.3236,0.3216,0.3249,0.3228,0.3001,0.2964,0.3109,0.3098,0.3219,0.3219,0.3219,0.3219,0.3219,0,0.2033,0.2052,0.2146,0.2172,0.2215,0.2293,0.2341,0.2491,0.256,0.2749,0.2786,0.295,0.3026,0.3184,0.3207,0.3253,0.3253,0.305,0.2942,0.3147,0.3125,0.3113,0.3102,0.2732,0.2728,0.2725,0.2722,0,0.199,0.2019,0.206,0.2107,0.2158,0.2217,0.2304,0.2353,0.2518,0.2612,0.2729,0.2814,0.2992,0.2982,0.3082,0.3052,0.3042,0.2985,0.3275,0.2749,0.2696,0.2672,0.2675,0.2693,0.2696,0.2698,0.27,0.2701,0.1944,0.1953,0.1995,0.2031,0.2082,0.212,0.2143,0.2236,0.2322,0.2436,0.2575,0.2647,0.2759,0.2815,0.2759,0.2736,0.2919,0.2785,0.2792,0.2802,0.2735,0.2685,0.2667,0.267,0.2672,0.2674,0.2676,0,0.1876,0.1889,0.1917,0.1952,0.1955,0.2029,0.2094,0.2096,0.2136,0.2269,0.2364,0.2269,0.2319,0.2405,0.2347,0.2385,0.2317,0.2275,0.216,0.2194,0.2224,0.2121,0.1893,0.189,0.1887,0.1884,0,0,0.1836,0.1823,0.1833,0.1808,0.1835,0.1847,0.1867,0.1877,0.1949,0.1941,0.1983,0.2212,0.2352,0.2078,0.208,0.1969,0.2045,0.1896,0.2539,0.2439,0.2463,0.2555,0.2442,0,0,0,0,0]},{"header":{"parameterUnit":"m.s-1","parameterCategory":2,"la1":30.2991,"la2":30.254,"lo1":-89.0895,"lo2":-89.0444,"dy":0.0017,"dx":0.0017,"nx":28,"ny":28,"refTime":"2025-01-28T03:00:00:Z","depth":"2","parameterNumber":3,"parameterNumberName":"V-component_of_CURRENTS"},"data":[0,0,0,0,0,0,0,0,0,0,0,0,0,0,0,0,0,0,0,0,0,0,0,0,0,0,0,0,0,0,0,0,0,0,0,0,0,0,0,0,0,0,0,0,0,0,0,0,0,0,0,0,0,0,0,0,0,0,0.003,0.0029,0,-0.0042,-0.0043,-0.0044,-0.01,-0.0101,-0.0101,-0.0101,-0.0197,-0.0199,-0.0201,0,0,0,0,0,0,0,0,0,0,0,0,0,0.0056,0.0056,0.003,0.0029,0.0028,-0.0042,-0.0043,-0.0044,-0.01,-0.0101,-0.0101,-0.0102,-0.0196,-0.0199,-0.0201,0,0,0,0,0,0,0,0,0,0,0,0,0,0.0019,0.0056,0.003,-0.0006,-0.001,-0.0042,-0.0043,-0.0045,-0.01,-0.0101,-0.0101,-0.0102,-0.0195,-0.0198,-0.0202,-0.0211,0,0,-0.0212,-0.0213,0,0,0,0,0,0,0,0,0.0021,0.0018,-0.0,-0.0004,-0.0008,-0.0061,-0.0069,-0.0101,-0.01,-0.0068,-0.0102,-0.0102,-0.0152,-0.0159,-0.0174,-0.0216,-0.022,-0.0212,-0.0214,-0.0215,-0.0216,0,0,0,0,0,0,0,0.0024,0.002,-0.0001,-0.0001,-0.0006,-0.004,-0.0046,-0.0075,-0.0108,-0.0071,-0.0075,-0.0079,-0.0154,-0.017,-0.0176,-0.0221,-0.0212,-0.0215,-0.0217,-0.0218,-0.0285,-0.0284,0,0,0,0,0,0,0.0041,0.0023,0.0002,-0.0003,0.0008,-0.004,-0.0046,-0.0045,-0.0107,-0.0117,-0.0079,-0.0082,-0.0164,-0.0172,-0.018,-0.0196,-0.0215,-0.0218,-0.022,-0.0285,-0.0285,-0.0284,0,0,0,0,0,0,0.0042,0.004,0.0005,0.001,0.0003,-0.0039,-0.0038,-0.0046,-0.0066,-0.0113,-0.0123,-0.009,-0.0165,-0.0175,-0.0201,-0.02,-0.022,-0.0223,-0.0285,-0.0285,-0.0284,-0.0228,0,0,0,0,0,0,0.0043,0.0041,0.0043,0.0011,0.0004,-0.0008,-0.0038,-0.0047,-0.0067,-0.0071,-0.0125,-0.0135,-0.0166,-0.0195,-0.0204,-0.0205,-0.0225,-0.0285,-0.0285,-0.0284,-0.023,-0.0225,-0.0222,0,0,0,0,0,0.0044,0.0058,0.0044,0.0041,0.001,-0.0007,-0.0015,-0.0049,-0.0066,-0.007,-0.0104,-0.0133,-0.0199,-0.0197,-0.0208,-0.021,-0.0285,-0.0285,-0.0285,-0.0231,-0.0226,-0.0222,0,0,0,0,0,0,0.0071,0.0052,0.0036,0.0043,0.002,-0.0016,-0.0022,-0.0046,-0.0077,-0.008,-0.0129,-0.014,-0.0165,-0.0192,-0.0189,-0.0228,-0.0248,-0.0249,-0.0204,-0.02,-0.0196,-0.0181,-0.0228,0,0,0,0,0,0.0079,0.0082,0.0056,0.0059,0.0052,0.0014,0.0001,-0.0019,-0.0048,-0.0063,-0.0102,-0.0139,-0.017,-0.0187,-0.022,-0.0237,-0.0262,-0.0246,-0.0242,-0.0238,-0.0233,-0.0274,-0.0273,-0.0283,-0.0283,-0.0283,0,0,0.0088,0.008,0.008,0.0065,0.0044,0.0043,0.0004,-0.0006,-0.0011,-0.0067,-0.0088,-0.0128,-0.0172,-0.0194,-0.0207,-0.0216,-0.0245,-0.0237,-0.0234,-0.0231,-0.0273,-0.0273,-0.0272,-0.0282,-0.0282,-0.0282,0,0,0.0118,0.0104,0.0117,0.0105,0.0085,0.0065,0.0065,0.0029,0.0009,-0.0012,-0.0055,-0.0088,-0.0138,-0.0167,-0.0188,-0.018,-0.0224,-0.0197,-0.0164,-0.0204,-0.0203,-0.0203,-0.0218,-0.022,-0.0193,-0.0193,-0.0193,0,0.0128,0.0144,0.0117,0.0127,0.0125,0.008,0.0095,0.0069,0.0028,0.0016,-0.0008,-0.0081,-0.0122,-0.0146,-0.0149,-0.017,-0.0196,-0.0178,-0.0198,-0.0199,-0.02,-0.0215,-0.0218,-0.019,-0.019,-0.0191,-0.0191,0,0.0167,0.0176,0.0184,0.0184,0.0177,0.0183,0.0152,0.0138,0.0107,0.0076,0.004,-0.0018,-0.006,-0.0083,-0.0117,-0.0144,-0.016,-0.0189,-0.0208,-0.0195,-0.0212,-0.0216,-0.0186,-0.0187,-0.0188,-0.0189,0,0,0.0201,0.021,0.0213,0.0228,0.0211,0.0215,0.0211,0.0196,0.0202,0.0139,0.0137,0.0062,0.0019,-0.0007,-0.0059,-0.0099,-0.013,-0.0147,-0.0151,-0.0156,-0.0206,-0.0225,-0.0231,-0.0171,-0.0171,-0.0172,-0.0209,0,0.0239,0.028,0.0271,0.0307,0.0326,0.0294,0.0297,0.0276,0.0249,0.0232,0.0156,0.0126,0.0051,0.0031,-0.0022,-0.0106,-0.014,-0.0116,-0.0222,-0.0224,-0.0239,-0.0236,-0.0219,-0.0252,-0.0213,-0.0213,-0.0214,0,0.0285,0.0308,0.0354,0.038,0.0385,0.0395,0.0407,0.0404,0.0364,0.0343,0.0292,0.0225,0.0151,0.009,-0.0043,-0.0029,-0.011,-0.0176,-0.0179,-0.0221,-0.0251,-0.0263,-0.0261,-0.0221,-0.022,-0.022,-0.0219,0,0.0338,0.037,0.0414,0.042,0.0435,0.0449,0.0452,0.0434,0.0451,0.0408,0.0414,0.0307,0.0267,0.0135,-0.0016,-0.0037,-0.0151,-0.0193,-0.0278,-0.0279,-0.0296,-0.0298,-0.0276,-0.0276,-0.0276,-0.0276,-0.0276,0,0.0392,0.0424,0.0441,0.0466,0.052,0.0504,0.0553,0.0544,0.0547,0.058,0.0469,0.048,0.027,0.0173,0.0024,-0.0133,-0.0123,-0.0269,-0.0295,-0.0274,-0.0273,-0.0277,-0.0277,-0.0277,-0.0277,-0.0277,-0.0276,0,0.0442,0.0451,0.0504,0.0533,0.0548,0.0583,0.0628,0.0666,0.0653,0.0699,0.0686,0.0603,0.047,0.0273,0.0077,-0.0065,-0.0222,-0.0274,-0.0224,-0.0245,-0.0331,-0.0327,-0.0381,-0.0382,-0.0383,-0.0383,-0.0384,0,0.0472,0.0505,0.0561,0.0601,0.0616,0.0665,0.0708,0.0719,0.0774,0.0787,0.0826,0.0711,0.0655,0.0367,0.0088,-0.0168,-0.0201,-0.0314,-0.0362,-0.0323,-0.0344,-0.0339,-0.0334,-0.0351,-0.0352,-0.0352,-0.0352,0,0.0527,0.0543,0.059,0.0677,0.0732,0.0801,0.0866,0.0931,0.0953,0.0987,0.1028,0.0979,0.0704,0.0439,0.008,-0.0096,-0.0283,-0.0328,-0.0304,-0.033,-0.03,-0.0319,-0.0314,-0.0355,-0.0354,-0.0354,-0.0354,-0.0354,0.0565,0.0609,0.0675,0.0756,0.0828,0.0927,0.1002,0.1076,0.1165,0.1221,0.1181,0.1115,0.0814,0.035,0.0041,-0.0291,-0.0284,-0.0405,-0.0403,-0.04,-0.0393,-0.0367,-0.043,-0.0431,-0.0431,-0.0431,-0.0431,0,0.0612,0.0665,0.0751,0.085,0.0938,0.0967,0.1106,0.1175,0.1285,0.1321,0.133,0.1046,0.0747,0.0407,-0.0087,-0.0381,-0.0407,-0.0472,-0.0439,-0.0434,-0.0431,-0.0424,-0.0471,-0.0472,-0.0472,-0.0473,0,0,0.0639,0.0723,0.077,0.0919,0.0996,0.1133,0.122,0.1314,0.1377,0.1393,0.1354,0.1268,0.0857,0.0498,0.0093,-0.0187,-0.0242,-0.0245,-0.0183,-0.0093,-0.0086,-0.0366,-0.0348,0,0,0,0,0]}],[{"header":{"parameterUnit":"m.s-1","parameterCategory":2,"la1":30.2991,"la2":30.254,"lo1":-89.0895,"lo2":-89.0444,"dy":0.0017,"dx":0.0017,"nx":28,"ny":28,"refTime":"2025-01-28T03:00:00:Z","depth":"4","parameterNumber":2,"parameterNumberName":"U-component_of_CURRENTS"},"data":[0,0,0,0,0,0,0,0,0,0,0,0,0,0,0,0,0,0,0,0,0,0,0,0,0,0,0,0,0,0,0,0,0,0,0,0,0,0,0,0,0,0,0,0,0,0,0,0,0,0,0,0,0,0,0,0,0,0,0.1309,0.131,0,0.138,0.1381,0.1382,0.1433,0.1434,0.1434,0.1435,0.1507,0.1509,0.151,0,0,0,0,0,0,0,0,0,0,0,0,0,0.1221,0.1222,0.1309,0.131,0.1311,0.138,0.1381,0.1382,0.1433,0.1434,0.1434,0.1435,0.1507,0.1509,0.151,0,0,0,0,0,0,0,0,0,0,0,0,0,0.1271,0.1222,0.1308,0.1345,0.1349,0.138,0.1381,0.1382,0.1433,0.1434,0.1434,0.1435,0.1506,0.1508,0.1511,0.1509,0,0,0.1517,0.1518,0,0,0,0,0,0,0,0,0.1268,0.1274,0.1339,0.1343,0.1347,0.1399,0.1377,0.1425,0.1433,0.14,0.1435,0.1436,0.1471,0.1476,0.1487,0.1512,0.1515,0.1517,0.1519,0.152,0.152,0,0,0,0,0,0,0,0.1265,0.1272,0.1336,0.134,0.1345,0.136,0.1367,0.1386,0.143,0.1403,0.1407,0.1416,0.1474,0.1485,0.1489,0.1516,0.1517,0.1519,0.1521,0.1521,0.1625,0.1626,0,0,0,0,0,0,0.1257,0.1268,0.1334,0.1338,0.131,0.1361,0.1369,0.1381,0.143,0.1438,0.1416,0.1419,0.148,0.1486,0.1492,0.1569,0.152,0.1522,0.1523,0.1624,0.1625,0.1627,0,0,0,0,0,0,0.1255,0.1262,0.1331,0.1305,0.1315,0.1361,0.1374,0.1382,0.1424,0.144,0.1448,0.1453,0.1481,0.1489,0.1538,0.157,0.1523,0.1525,0.1622,0.1624,0.1626,0.1675,0,0,0,0,0,0,0.1252,0.1261,0.128,0.1305,0.1317,0.1367,0.1374,0.1383,0.1427,0.1432,0.1473,0.1479,0.1482,0.1535,0.154,0.1572,0.1526,0.162,0.1623,0.1625,0.1672,0.1679,0.1685,0,0,0,0,0,0.1249,0.1266,0.128,0.1289,0.1336,0.1368,0.1376,0.141,0.1428,0.145,0.1483,0.1479,0.1555,0.1538,0.1544,0.1577,0.1619,0.1622,0.1625,0.1669,0.1678,0.1685,0,0,0,0,0,0,0.1235,0.1274,0.1289,0.1318,0.135,0.1378,0.1406,0.1427,0.147,0.1486,0.1499,0.1507,0.1561,0.1563,0.1543,0.1615,0.1586,0.1591,0.1618,0.1626,0.1632,0.1635,0.1528,0,0,0,0,0,0.124,0.1269,0.1301,0.1327,0.1346,0.1382,0.1405,0.1429,0.1464,0.1485,0.1514,0.1545,0.1574,0.1596,0.1618,0.1658,0.1664,0.1683,0.169,0.1695,0.1702,0.1732,0.1742,0.1638,0.1638,0.1637,0,0,0.1243,0.1268,0.1286,0.1328,0.1358,0.1388,0.1399,0.1444,0.1478,0.1485,0.155,0.1572,0.159,0.1637,0.1661,0.1646,0.1732,0.1699,0.1704,0.1708,0.1737,0.1747,0.1756,0.164,0.1639,0.1639,0,0,0.1252,0.1287,0.1312,0.1343,0.1392,0.1414,0.1433,0.148,0.1515,0.1567,0.1585,0.1629,0.1671,0.1694,0.1708,0.1764,0.1765,0.1775,0.1813,0.1843,0.1851,0.1859,0.1892,0.1902,0.1779,0.1779,0.1779,0,0.1256,0.1289,0.1324,0.1355,0.1384,0.1428,0.1459,0.1499,0.1558,0.1587,0.1595,0.1676,0.1696,0.1751,0.1777,0.1779,0.1798,0.1781,0.1851,0.1858,0.1865,0.1897,0.1908,0.1782,0.1781,0.1781,0.1781,0,0.1276,0.1314,0.1333,0.1386,0.1421,0.1459,0.151,0.1558,0.1601,0.1634,0.1707,0.174,0.1787,0.1803,0.181,0.1876,0.1875,0.1854,0.1829,0.1879,0.1909,0.1919,0.1786,0.1785,0.1784,0.1783,0,0,0.1252,0.1332,0.1341,0.1372,0.1443,0.147,0.1535,0.1596,0.1646,0.1704,0.1765,0.1823,0.1851,0.187,0.1892,0.1924,0.1997,0.192,0.192,0.195,0.2075,0.1972,0.1973,0.1991,0.1993,0.1994,0.2081,0,0.1258,0.1312,0.1354,0.1413,0.1445,0.1507,0.1562,0.1627,0.1686,0.1759,0.1808,0.1877,0.1875,0.1917,0.1948,0.1988,0.2025,0.1976,0.2025,0.2027,0.1926,0.1981,0.2,0.2088,0.209,0.2092,0.2093,0,0.1257,0.1296,0.1349,0.1431,0.1453,0.15,0.1594,0.1652,0.1755,0.1805,0.1875,0.1922,0.2004,0.1987,0.2074,0.2047,0.2072,0.209,0.2093,0.1984,0.1942,0.2025,0.2111,0.211,0.2108,0.2107,0.2106,0,0.1208,0.129,0.1333,0.1362,0.1459,0.1506,0.1569,0.1669,0.1727,0.1851,0.1902,0.1991,0.2055,0.2095,0.2148,0.2123,0.223,0.2191,0.212,0.2114,0.2157,0.2148,0.2246,0.2246,0.2246,0.2246,0.2246,0,0.1182,0.1221,0.1322,0.1346,0.1413,0.1494,0.1578,0.1654,0.1765,0.1838,0.1932,0.1996,0.2088,0.2157,0.218,0.2188,0.2257,0.214,0.213,0.2178,0.217,0.2165,0.2155,0.2249,0.2248,0.2248,0.2247,0,0.1119,0.1184,0.1239,0.1349,0.1392,0.1443,0.1578,0.1629,0.1751,0.185,0.1897,0.2028,0.2121,0.2194,0.2278,0.2222,0.2244,0.223,0.2304,0.2295,0.21,0.2091,0.2146,0.2143,0.2141,0.2139,0.2137,0,0.1086,0.111,0.1227,0.1262,0.132,0.1414,0.1472,0.1609,0.1666,0.1852,0.1884,0.2031,0.2108,0.2141,0.2221,0.2263,0.2237,0.2227,0.2134,0.2106,0.2091,0.2086,0.2081,0.2133,0.2133,0.2132,0.2131,0,0.1026,0.1079,0.1127,0.1202,0.1269,0.1335,0.1437,0.1472,0.1632,0.1749,0.1843,0.1912,0.2017,0.2081,0.2139,0.2157,0.2216,0.2201,0.2204,0.2117,0.209,0.2077,0.2075,0.2123,0.2124,0.2125,0.2125,0,0.0985,0.1003,0.1075,0.1134,0.1208,0.125,0.1312,0.1396,0.1476,0.168,0.1712,0.1871,0.2003,0.203,0.208,0.2097,0.2056,0.1973,0.1987,0.1998,0.1908,0.185,0.1812,0,0,0,0,0,0.0937,0.0959,0.1002,0.1064,0.1128,0.1179,0.1286,0.1348,0.1504,0.1531,0.1623,0.172,0.1813,0.1889,0.1879,0.2012,0.2059,0.1989,0.1967,0.2076,0.2085,0.1994,0,0,0,0,0,0,0.0909,0.0951,0.0976,0.0997,0.1024,0.1091,0.1156,0.1254,0.128,0.1441,0.1499,0.162,0.173,0.181,0.1849,0.1873,0.1825,0.2088,0.2084,0.207,0.2079,0.2087,0.1996,0,0,0,0,0]},{"header":{"parameterUnit":"m.s-1","parameterCategory":2,"la1":30.2991,"la2":30.254,"lo1":-89.0895,"lo2":-89.0444,"dy":0.0017,"dx":0.0017,"nx":28,"ny":28,"refTime":"2025-01-28T03:00:00:Z","depth":"4","parameterNumber":3,"parameterNumberName":"V-component_of_CURRENTS"},"data":[0,0,0,0,0,0,0,0,0,0,0,0,0,0,0,0,0,0,0,0,0,0,0,0,0,0,0,0,0,0,0,0,0,0,0,0,0,0,0,0,0,0,0,0,0,0,0,0,0,0,0,0,0,0,0,0,0,0,0.0182,0.0182,0,0.0144,0.0144,0.0144,0.0119,0.0119,0.0119,0.0119,0.006,0.0058,0.0057,0,0,0,0,0,0,0,0,0,0,0,0,0,0.0189,0.0189,0.0182,0.0182,0.0181,0.0145,0.0144,0.0143,0.0119,0.0119,0.0119,0.0119,0.006,0.0058,0.0057,0,0,0,0,0,0,0,0,0,0,0,0,0,0.0172,0.0189,0.0182,0.0165,0.0163,0.0145,0.0144,0.0143,0.012,0.0119,0.0119,0.0119,0.0061,0.0059,0.0056,0.0047,0,0,0.005,0.0049,0,0,0,0,0,0,0,0,0.0173,0.0172,0.0168,0.0166,0.0164,0.0137,0.0124,0.011,0.012,0.0136,0.0119,0.0119,0.0084,0.008,0.0073,0.0044,0.0041,0.005,0.0048,0.0047,0.0047,0,0,0,0,0,0,0,0.0174,0.0173,0.0167,0.0168,0.0165,0.0144,0.0142,0.0121,0.0111,0.0134,0.0133,0.0129,0.0082,0.0075,0.0071,0.004,0.005,0.0048,0.0046,0.0045,0.0006,0.0006,0,0,0,0,0,0,0.0182,0.0174,0.0168,0.0166,0.0168,0.0144,0.0142,0.0146,0.0111,0.0106,0.0129,0.0128,0.0079,0.0074,0.0069,0.0068,0.0047,0.0045,0.0044,0.0006,0.0006,0.0006,0,0,0,0,0,0,0.0182,0.0182,0.017,0.0169,0.0166,0.0145,0.0149,0.0145,0.0139,0.0108,0.0102,0.0127,0.0079,0.0072,0.0056,0.0065,0.0044,0.0042,0.0005,0.0006,0.0006,0.0059,0,0,0,0,0,0,0.0183,0.0183,0.0188,0.017,0.0166,0.0165,0.0149,0.0144,0.0137,0.0135,0.0104,0.0098,0.0078,0.0059,0.0054,0.0062,0.004,0.0005,0.0006,0.0006,0.0057,0.0061,0.0064,0,0,0,0,0,0.0183,0.0194,0.0189,0.0188,0.0175,0.0165,0.0161,0.0145,0.0137,0.0138,0.0117,0.0099,0.0059,0.0058,0.0051,0.0059,0.0005,0.0006,0.0006,0.0055,0.006,0.0064,0,0,0,0,0,0,0.0199,0.0192,0.0186,0.0194,0.0183,0.0161,0.0161,0.0148,0.0133,0.0132,0.0101,0.0094,0.0082,0.0063,0.0063,0.0049,0.0029,0.0029,0.0069,0.0073,0.0077,0.0097,0.0039,0,0,0,0,0,0.0206,0.0214,0.0199,0.0205,0.0202,0.0182,0.0176,0.0166,0.0149,0.0142,0.012,0.0098,0.008,0.0071,0.005,0.0043,0.0019,0.0043,0.0047,0.0051,0.0063,0.0038,0.0041,0.0008,0.0008,0.0008,0,0,0.0213,0.0211,0.0215,0.0209,0.0199,0.0203,0.0178,0.0175,0.018,0.0138,0.0137,0.0108,0.0079,0.0072,0.0065,0.0058,0.0044,0.0052,0.0055,0.0065,0.0039,0.0042,0.0045,0.0009,0.0009,0.0009,0,0,0.0235,0.0231,0.0245,0.0239,0.023,0.022,0.0222,0.0203,0.0198,0.0189,0.0162,0.0145,0.0113,0.01,0.0088,0.0101,0.0064,0.0089,0.0129,0.0105,0.0108,0.011,0.0072,0.0071,0.0095,0.0095,0.0095,0,0.0245,0.0262,0.0246,0.0256,0.0259,0.0232,0.0249,0.0238,0.0217,0.0217,0.0197,0.0158,0.0131,0.0128,0.0132,0.0112,0.0085,0.0115,0.0111,0.0113,0.0114,0.0075,0.0073,0.0098,0.0097,0.0097,0.0097,0,0.0272,0.0288,0.0295,0.0304,0.0304,0.0313,0.03,0.0299,0.0285,0.027,0.0258,0.0219,0.0198,0.0184,0.0161,0.016,0.0132,0.0117,0.0102,0.0121,0.0078,0.0074,0.0101,0.01,0.01,0.0099,0,0,0.0297,0.0314,0.0317,0.0337,0.0333,0.034,0.0351,0.0356,0.0369,0.0335,0.0344,0.0306,0.0277,0.0262,0.0228,0.0209,0.0186,0.0171,0.0169,0.0139,0.012,0.0072,0.0063,0.0168,0.0168,0.0168,0.0082,0,0.0327,0.0365,0.0363,0.0402,0.0424,0.0411,0.0426,0.0424,0.0412,0.0409,0.0368,0.0357,0.0309,0.03,0.0272,0.021,0.0181,0.021,0.0102,0.0099,0.0059,0.006,0.0168,0.0079,0.0078,0.0077,0.0077,0,0.0355,0.0382,0.0428,0.0466,0.0474,0.0494,0.0521,0.053,0.0515,0.0504,0.048,0.0436,0.0401,0.0358,0.0263,0.0281,0.0208,0.0156,0.0151,0.009,0.0046,0.0058,0.007,0.0071,0.0071,0.0072,0.0072,0,0.0386,0.0428,0.0473,0.0483,0.0516,0.0542,0.056,0.0562,0.0578,0.0566,0.0566,0.0508,0.0477,0.039,0.0263,0.0265,0.0148,0.0137,0.0024,0.0018,0.0065,0.0063,0.0073,0.0073,0.0073,0.0073,0.0073,0,0.042,0.0456,0.0496,0.0522,0.058,0.0587,0.0642,0.0647,0.0657,0.0674,0.0617,0.0604,0.0484,0.0392,0.0282,0.0132,0.0156,0.0031,-0.0003,0.0086,0.0088,0.0061,0.0061,0.007,0.0071,0.0071,0.0072,0,0.0441,0.0466,0.0522,0.0576,0.0598,0.0639,0.07,0.0731,0.0735,0.0755,0.0752,0.0674,0.055,0.041,0.0256,0.0154,0.0023,-0.0039,0.0055,0.0027,-0.0096,-0.0092,-0.0159,-0.0161,-0.0163,-0.0165,-0.0166,0,0.0456,0.0486,0.0562,0.0599,0.0628,0.0693,0.0735,0.0768,0.0796,0.0789,0.0791,0.0688,0.0612,0.0361,0.0212,-0.0008,-0.0043,-0.0114,-0.0091,-0.0091,-0.0117,-0.0111,-0.0105,-0.0169,-0.017,-0.017,-0.0171,0,0.0479,0.0504,0.0548,0.0627,0.0686,0.0752,0.0813,0.0839,0.0863,0.0872,0.0813,0.0684,0.0534,0.0345,0.0162,0.0009,-0.0064,-0.0135,-0.0132,-0.011,-0.0105,-0.0127,-0.0119,-0.0178,-0.0177,-0.0176,-0.0176,0,0.0488,0.0519,0.0575,0.0639,0.0716,0.0778,0.0819,0.0844,0.087,0.0859,0.0834,0.0684,0.0601,0.0351,0.0188,0.0024,-0.0011,-0.0056,-0.0057,-0.0052,0.0,0.0024,-0.0036,0,0,0,0,0,0.0488,0.0517,0.0581,0.0651,0.0727,0.0771,0.0849,0.088,0.0908,0.0868,0.0852,0.0711,0.0463,0.0361,0.0188,0.0146,-0.0043,-0.0063,-0.0097,-0.0215,-0.0208,-0.0169,0,0,0,0,0,0,0.0485,0.0539,0.0571,0.0643,0.069,0.0774,0.0827,0.0852,0.083,0.0833,0.0706,0.0653,0.0415,0.0554,0.0178,0.0129,0.0081,-0.0172,-0.0176,-0.022,-0.0213,-0.0206,-0.0164,0,0,0,0,0]}]]